Volver al catálogo

BSAT-3C

ActivoComunicacionesGEO
NORAD 37776·PAYLOAD·🇯🇵 Japan

Lanzado Aug 6, 2011 desde Guiana Space Centre

Loading…

TLE

ActualizadoSource: Space-Track

Época: Sep 14, 2026, 21:10 UTC

1 37776U 11041B   26257.88204723 -.00000358  00000-0  00000-0 0  9990
2 37776   0.0443 340.1471 0000090 247.1673 194.0319  1.00272343 51366

Sigue BSAT-3C en tiempo real con AllMySat

Download on the App Store